www.pogodaiklimat.ru
ПОГОДА в Таосе
Время
и дата
20:56 28.01
21:56 28.01
22:56 28.01
23:56 28.01
00:56 29.01
01:56 29.01
02:56 29.01
03:56 29.01
04:56 29.01
05:56 29.01
06:56 29.01
07:56 29.01
08:56 29.01
09:56 29.01
10:56 29.01
11:56 29.01
12:56 29.01
13:56 29.01
14:56 29.01
15:56 29.01
16:56 29.01
17:56 29.01
18:56 29.01
19:56 29.01
20:56 29.01
21:56 29.01
22:56 29.01
23:56 29.01
00:56 30.01
01:56 30.01
02:56 30.01
03:56 30.01
04:56 30.01
05:56 30.01
06:56 30.01
07:56 30.01
08:56 30.01
09:56 30.01
10:56 30.01
11:56 30.01
12:56 30.01
13:56 30.01
14:56 30.01
15:56 30.01
16:56 30.01
17:56 30.01
18:56 30.01
19:56 30.01
Ветер
(напр.,м/с)
Видим. Явления Облачность Т
(С)
Тd
(С)
f
(%)
Тe
(С)
Тes
(С)
Комфортность P
(гПа)
Po
(гПа)
Тmin
(С)
Tmax
(С)
R
(мм)
R24
(мм)
S
(см)
З 3 16 км 8/8 1950 м -2.8 -7.8 68 -8 -8 1018.8 780.5
Ю 2 16 км 5/5 1800 м -5.6 -8.9 78 -10 -10 1018.3 780.5
ЮВ 4 16 км ясно -7.8 -10.0 84 -15 -15 1017.8 780.3 -8.3 +1.1
В 4 16 км ясно -8.3 -10.6 83 -15 -15 1017.2 779.7
В 3 16 км ясно -8.9 -11.1 84 -15 -15 1017.3 780.0
В 2 16 км ясно -7.8 -11.1 77 -12 -12 1016.9 780.0
ЮВ 2 16 км ясно -8.3 -11.7 76 -13 -13 1016.8 780.0
нст 2 16 км ясно -8.9 -13.3 70 -13 -13 1017.0 779.7
штиль 0 16 км ясно -7.2 -11.1 74 -8 -8 1017.2 779.7 -11.7 -5.6
В 2 16 км ясно -10.0 -13.9 73 -14 -14 1018.2 779.5
штиль 0 16 км ясно -9.4 -12.8 76 -10 -10 1019.0 779.7
штиль 0 16 км ясно -8.9 -11.7 80 -9 -9 1019.3 780.3
ЮЗ 2 16 км ясно -1.1 -9.4 53 -4 -3 1017.6 780.5
Ю 2 16 км ясно +0.6 -10.6 43 -2 +1 1018.0 780.5
ЮЗ 7
{10}
16 км ясно +3.3 -10.6 35 -2 0 1017.3 780.3 -12.8 +3.3
ЮЗ 10
{11}
16 км ясно +4.4 -10.6 33 -1 -1 1015.7 779.2
ЮЗ 8
{10}
16 км ясно +5.6 -10.6 30 +1 +2 1014.4 778.2
ЮЗ 9
{13}
16 км ясно +5.6 -10.0 32 +1 +1 1013.2 777.6
ЮЗ 9
{11}
16 км ясно +5.6 -10.0 32 +1 +1 1013.2 777.6
З 6
{10}
16 км ясно +5.6 -10.0 32 +2 +3 1013.9 777.9
ЮЗ 7 16 км ясно +4.4 -10.6 33 0 0 1014.0 778.2 +3.3 +6.1
ЮЗ 4 16 км ясно +1.1 -9.4 45 -3 -3 1016.4 778.4
ЮЗ 4 16 км ясно 0.0 -8.3 54 -5 -5 1016.8 778.9
ЮВ 4 16 км ясно -2.2 -8.9 60 -8 -8 1017.7 778.9
ЮВ 3 16 км ясно -2.8 -9.4 60 -8 -8 1015.3 778.9
С 2 16 км ясно -5.0 -10.6 65 -9 -9 1016.1 779.2
С 2 16 км ясно -6.1 -11.1 68 -10 -10 1016.0 779.7 -6.1 +4.4
З 4 16 км ясно -4.4 -10.6 62 -10 -10 1015.9 780.0
ЮЗ 5 16 км ясно -3.3 -10.6 57 -10 -10 1015.5 780.0
ЮВ 2 16 км ясно -5.0 -11.1 62 -9 -9 1015.6 780.0
С 3 16 км ясно -8.9 -13.3 70 -15 -15 1017.0 780.0
СВ 2 16 км ясно -7.2 -12.8 64 -11 -11 1016.1 780.0
штиль 0 16 км ясно -6.7 -12.2 65 -7 -7 1016.4 780.0 -8.9 -3.3
штиль 0 16 км ясно -6.1 -13.3 57 -7 -7 1017.3 780.3
С 4 16 км ясно -9.4 -14.4 67 -16 -16 1019.1 780.5
С 3 16 км ясно -5.0 -11.1 62 -10 -10 1019.3 781.0
штиль 0 16 км ясно 0.0 -12.8 37 0 +1 1018.5 781.6
ЮЗ 5 16 км ясно +2.8 -11.1 35 -2 0 1018.6 781.6
З 7 16 км ясно +4.4 -11.1 31 0 +1 1017.8 781.3 -11.1 +4.4
ЮЗ 8 16 км ясно +5.0 -10.6 31 0 +1 1016.1 780.3
З 7
{11}
16 км ясно +5.6 -11.1 29 +1 +3 1014.7 779.5
З 9
{10}
16 км ясно +5.6 -11.7 28 +1 +1 1014.2 778.9
З 8
{10}
16 км 2/0 2700 m
[Ac]
+6.1 -11.7 27 +2 +2 1015.1 778.9
З 8
{10}
16 км ясно +5.6 -11.1 29 +1 +2 1015.2 779.2
З 4 16 км ясно +2.2 -10.0 40 -2 -1 1016.5 779.5 +2.2 +6.1
СЗ 4 16 км ясно -0.6 -8.3 56 -6 -6 1017.3 779.7
штиль 0 16 км ясно -1.7 -8.3 61 -2 -2 1019.1 780.0
В 2 16 км ясно -3.3 -7.8 71 -7 -7 1018.5 780.3
Местоположение метеостанции Taos Regional Airport: широта 36.4500 долгота -105.6667 высота над уровнем моря 2161 м.
В архиве по умолчанию представлена погода в Таосе за последние 1-2 суток. Обновление информации о фактической погоде в базе происходит ежечасно! Архивные данные за месяц целиком и за предыдущие месяцы Вы можете получить, выбрав интересующий диапазон дат из раскрывающегося списка и нажав кнопку "Ввод!".
Внимание! Архив погоды МЕТАР в базе сайта по станциям, не включенным в климатический монитор, хранится не более 60 дней. Нет смысла пытаться выбрать более раннюю дату.
*Определитесь, кто Вы:
Внимание! Время в таблицах - местное (без учета летнего времени). Для получения всемирного времени необходимо вычесть поправку, которая равна -7 ч.
Смотрите также архив погоды в соседних городах и на ближайших метеорологических станциях:
Партнеры нашего сайта:      
Пояснения к столбцам:
  • Ветер - указаны скорость ветра в м/с - средняя за 10 мин, порывы в срок и между сроками (в фигурных скобках) и направление, откуда дует ветер: С - северный,
  • СВ - северо-восточный, В - восточный, ЮВ - юго-восточный, Ю - южный, ЮЗ - юго-западный, З - западный, СЗ - северо-западный.
  • Видимость - горизонтальная дальность видимости в метрах или километрах. При видимости от 1 до 10 км при отсутствии осадков обычно наблюдается дымка, при ухудшении видимости до 1 км и менее - туман. В сухую погоду видимость может ухудшаться дымом, пылью или мглою.
  • Явления - указаны атмосферные явления, наблюдавшиеся в срок или в последний час перед сроком; фигурными скобками обозначены явления, наблюдавшиеся между сроками (за 1-3 часа до срока); квадратными скобками обозначены град или гололедные отложения с указанием их диаметра в мм.
  • Облачность - указаны через наклонную черту общая и нижняя облачность в баллах и высота нижней границы облаков в метрах; квадратными скобками обозначены формы облаков: Ci - перистые, Cs - перисто-слоистые, Cc - перисто-кучевые, Ac - высококучевые, As - высокослоистые, Sc - слоисто-кучевые, Ns - слоисто-дождевые, Cu - кучевые, Cb - кучево-дождевые. Подробнее классификацию облаков см. в Атласе облаков (PDF).
  • T - Температура воздуха - температура, измеренная на высоте 2 м над землей.
  • Td - Температура точки росы - температура, при понижении до которой содержащийся в воздухе водяной пар достигнет насыщения.
  • f - Относительная влажность воздуха - влажноcть воздуха, измеренная на высоте 2 м над землей.
  • Te - Эффективная температура - температура, которую ощущает одетый по сезону человек в тени. Характеристика душности погоды. При расчете учитывается влияние влажности воздуха и скорости ветра на теплоощущения человека.
  • Tes - Эффективная температура на солнце - температура, которую ощущает человек, с поправкой на солнечный нагрев. Характеристика знойности погоды. Зависит от высоты солнца над горизонтом, облачности и скорости ветра. Ночью, в пасмурную погоду, а также при ветре 12 м/с и более поправка равна нулю.
  • P - Атмосферное давление - приведенное к уровню моря атмосферное давление.
  • Po - Атмосферное давление - измеренное на уровне метеостанции атмосферное давление.
  • Tmin - Минимальная температура - минимум температуры воздуха на высоте 2 м над землей.
  • Tmax - Максимальная температура - максимум температуры воздуха на высоте 2 м над землей.
  • R - Количество осадков - Количество выпавших осадков за период времени, мм. При наведении курсора мыши на число - период времени, за который выпало указанное количество осадков.
  • R24 - Количество осадков - Количество выпавших осадков за 24 часа, мм.
  • S - Снежный покров - Высота снежного покрова, см. При наведении курсора мыши на число - состояние снежного покрова и степень покрытия местности в баллах.